W0DXV Weather Reports


Display with metric or nautical units.
time (UTC)temp
F
wind
direction
speed
MPH
gust
MPH
rain 1hr
in
rain 24hr
in
rain mn
in
humidity
%
barometer
mb
20260504010933 51 231 0.0 0.0 0.00 0.00 0.00 73 1012.0
20260504010429 51 231 0.0 0.0 0.00 0.00 0.00 72 1012.0
20260504005925 52 231 0.0 0.0 0.00 0.00 0.00 71 1012.0
20260504005422 52 230 0.0 0.0 0.00 0.00 0.00 70 1011.8
20260504004919 53 230 0.0 0.0 0.00 0.00 0.00 68 1011.9
20260504004417 53 230 0.0 0.0 0.00 0.00 0.00 68 1012.0
20260504003914 54 230 0.0 0.0 0.00 0.00 0.00 66 1012.0
20260504003410 54 230 0.0 0.0 0.00 0.00 0.00 65 1011.8
20260504002907 55 230 0.0 0.0 0.00 0.00 0.00 62 1011.7
20260504002404 56 231 0.0 0.0 0.00 0.00 0.00 62 1011.5
20260504001901 56 230 0.0 0.0 0.00 0.00 0.00 60 1011.6
20260504001359 57 231 0.0 0.0 0.00 0.00 0.00 59 1011.5
20260504000855 58 231 0.0 0.0 0.00 0.00 0.00 55 1011.6
20260504000354 59 230 0.0 0.0 0.00 0.00 0.00 54 1011.4
20260503235850 60 230 0.0 0.0 0.00 0.00 0.00 52 1011.5
20260503235348 60 230 0.0 0.0 0.00 0.00 0.00 46 1011.4
20260503234844 61 230 0.0 0.0 0.00 0.00 0.00 43 1011.5
20260503234342 62 230 0.0 1.0 0.00 0.00 0.00 42 1011.4
20260503233840 62 230 0.0 0.0 0.00 0.00 0.00 41 1011.3
20260503233336 62 230 0.0 0.0 0.00 0.00 0.00 41 1011.5
20260503232832 62 230 0.0 0.0 0.00 0.00 0.00 39 1011.5
20260503232330 63 230 0.0 0.0 0.00 0.00 0.00 40 1011.4
20260503231827 63 231 0.0 0.0 0.00 0.00 0.00 39 1011.5
20260503231324 63 230 0.0 1.0 0.00 0.00 0.00 37 1011.4
20260503230820 63 230 0.0 0.0 0.00 0.00 0.00 41 1011.5
20260503230318 64 228 1.0 1.0 0.00 0.00 0.00 38 1011.4
20260503225815 63 250 0.0 1.0 0.00 0.00 0.00 37 1011.6
20260503225311 64 250 0.0 0.0 0.00 0.00 0.00 38 1011.4
20260503224807 64 231 0.0 0.0 0.00 0.00 0.00 38 1011.5
20260503224305 64 254 0.0 0.0 0.00 0.00 0.00 37 1011.3
20260503223802 64 220 0.0 0.0 0.00 0.00 0.00 37 1011.7
20260503223300 64 249 0.0 0.0 0.00 0.00 0.00 37 1011.6
20260503222755 64 249 0.0 0.0 0.00 0.00 0.00 38 1011.6
20260503222254 65 250 0.0 0.0 0.00 0.00 0.00 41 1011.6
20260503221752 65 243 0.0 0.0 0.00 0.00 0.00 35 1011.8
20260503221249 65 287 1.0 1.0 0.00 0.00 0.00 34 1011.7
20260503220746 65 264 0.0 0.0 0.00 0.00 0.00 36 1011.6
20260503220243 65 201 0.0 0.0 0.00 0.00 0.00 33 1012.0
20260503215739 65 225 0.0 1.0 0.00 0.00 0.00 37 1011.8
20260503215237 65 232 1.0 1.0 0.00 0.00 0.00 36 1011.8
20260503214735 65 293 1.0 2.0 0.00 0.00 0.00 31 1011.9
20260503214231 65 234 1.0 2.0 0.00 0.00 0.00 34 1012.1
20260503213729 66 224 1.0 1.0 0.00 0.00 0.00 32 1012.0
20260503213226 66 31 1.0 1.0 0.00 0.00 0.00 32 1012.1
20260503212723 66 279 0.0 0.0 0.00 0.00 0.00 33 1012.4
20260503212221 66 300 2.0 2.0 0.00 0.00 0.00 31 1012.3
20260503211718 66 313 1.0 2.0 0.00 0.00 0.00 30 1012.2
20260503211214 66 258 1.0 1.0 0.00 0.00 0.00 34 1012.4
20260503210710 66 256 1.0 1.0 0.00 0.00 0.00 33 1012.5
20260503210207 66 259 1.0 1.0 0.00 0.00 0.00 34 1012.5
20260503205703 66 216 1.0 1.0 0.00 0.00 0.00 31 1012.6
20260503205159 66 71 1.0 2.0 0.00 0.00 0.00 31 1012.5
20260503204655 67 263 3.0 3.0 0.00 0.00 0.00 33 1012.6
20260503204153 67 237 2.0 2.0 0.00 0.00 0.00 33 1012.5
20260503203650 68 255 1.0 1.0 0.00 0.00 0.00 30 1012.8
20260503203148 67 238 1.0 1.0 0.00 0.00 0.00 30 1012.8
20260503202644 68 249 1.0 1.0 0.00 0.00 0.00 32 1012.8
20260503202143 69 304 0.0 0.0 0.00 0.00 0.00 31 1012.7
20260503201641 68 271 0.0 1.0 0.00 0.00 0.00 30 1012.9
20260503201138 68 210 1.0 1.0 0.00 0.00 0.00 32 1013.1
20260503200633 68 234 0.0 1.0 0.00 0.00 0.00 32 1013.2
20260503200130 68 267 1.0 2.0 0.00 0.00 0.00 32 1013.0
20260503195627 68 227 1.0 2.0 0.00 0.00 0.00 33 1013.2
20260503195124 68 268 0.0 1.0 0.00 0.00 0.00 33 1013.3
20260503194621 67 277 2.0 2.0 0.00 0.00 0.00 30 1013.4
20260503194116 67 289 3.0 3.0 0.00 0.00 0.00 32 1013.6
20260503193613 68 270 1.0 1.0 0.00 0.00 0.00 31 1013.4
20260503193109 67 247 2.0 2.0 0.00 0.00 0.00 30 1013.4
20260503192605 67 222 1.0 2.0 0.00 0.00 0.00 33 1013.7
20260503192101 67 179 3.0 3.0 0.00 0.00 0.00 31 1013.6
20260503191558 66 304 2.0 2.0 0.00 0.00 0.00 31 1013.9
20260503191054 66 233 3.0 3.0 0.00 0.00 0.00 32 1013.8
20260503190551 67 243 2.0 2.0 0.00 0.00 0.00 32 1014.1
20260503190049 66 277 2.0 2.0 0.00 0.00 0.00 30 1013.9
20260503185545 66 276 1.0 1.0 0.00 0.00 0.00 30 1014.0
20260503185045 66 281 1.0 1.0 0.00 0.00 0.00 30 1014.3
20260503184541 66 32 2.0 3.0 0.00 0.00 0.00 30 1014.3
20260503184038 66 272 1.0 2.0 0.00 0.00 0.00 30 1014.2
20260503183534 65 308 3.0 3.0 0.00 0.00 0.00 29 1014.4
20260503183031 65 281 2.0 3.0 0.00 0.00 0.00 31 1014.3
20260503182530 65 271 1.0 1.0 0.00 0.00 0.00 30 1014.6
20260503182027 66 327 0.0 1.0 0.00 0.00 0.00 29 1014.7
20260503181524 65 261 1.0 1.0 0.00 0.00 0.00 30 1014.8
20260503181020 66 289 3.0 3.0 0.00 0.00 0.00 30 1015.0
20260503180518 66 247 2.0 2.0 0.00 0.00 0.00 30 1014.5
20260503180015 64 234 1.0 1.0 0.00 0.00 0.00 31 1014.8
20260503175513 64 62 1.0 1.0 0.00 0.00 0.00 30 1014.9
20260503175009 65 79 2.0 3.0 0.00 0.00 0.00 31 1014.8
20260503174507 64 239 1.0 2.0 0.00 0.00 0.00 33 1014.8
20260503174003 62 11 1.0 1.0 0.00 0.00 0.00 32 1015.2
20260503173458 63 29 1.0 2.0 0.00 0.00 0.00 33 1015.1
20260503172955 63 219 1.0 1.0 0.00 0.00 0.00 31 1015.1
20260503172452 63 285 2.0 2.0 0.00 0.00 0.00 32 1015.2
20260503171949 62 305 1.0 1.0 0.00 0.00 0.00 32 1015.2
20260503171445 62 328 2.0 3.0 0.00 0.00 0.00 34 1015.4
20260503170943 62 34 3.0 3.0 0.00 0.00 0.00 34 1015.5
20260503170439 61 212 1.0 2.0 0.00 0.00 0.00 34 1015.5
20260503150831 57 262 1.0 1.0 0.00 0.00 0.00 42 1016.6
20260503150327 58 278 1.0 2.0 0.00 0.00 0.00 43 1016.5
20260503140252 54 8 8.0 10.0 0.00 0.00 0.00 46 1016.3
20260503131221 53 296 2.0 2.0 0.00 0.00 0.00 54 1016.3
20260503130719 53 276 1.0 1.0 0.00 0.00 0.00 56 1016.4
20260503130216 53 27 2.0 3.0 0.00 0.00 0.00 58 1015.9
20260503120142 44 237 0.0 0.0 0.00 0.00 0.00 88 1015.8
20260503110610 34 284 0.0 0.0 0.00 0.00 0.00 99 1015.4
20260503110107 34 282 0.0 0.0 0.00 0.00 0.00 99 1015.3
20260503090456 35 277 0.0 0.0 0.00 0.00 0.00 98 1013.9
20260503081423 36 276 0.0 0.0 0.00 0.00 0.00 97 1013.6
20260503080920 36 275 0.0 0.0 0.00 0.00 0.00 97 1013.6
20260503080416 37 274 0.0 0.0 0.00 0.00 0.00 97 1013.3
20260503072852 37 273 0.0 0.0 0.00 0.00 0.00 97 1013.1
20260503072350 37 273 0.0 0.0 0.00 0.00 0.00 96 1012.8
20260503071846 37 273 0.0 0.0 0.00 0.00 0.00 96 1012.9
20260503071344 37 273 0.0 0.0 0.00 0.00 0.00 96 1012.9
20260503070839 37 273 0.0 0.0 0.00 0.00 0.00 96 1012.7
20260503070338 37 273 0.0 0.0 0.00 0.00 0.00 96 1012.9
20260503060256 39 272 0.0 0.0 0.00 0.00 0.00 94 1012.4
20260503054738 39 272 0.0 0.0 0.00 0.00 0.00 94 1012.4
20260503054235 39 273 0.0 0.0 0.00 0.00 0.00 94 1012.5
20260503053733 39 273 0.0 0.0 0.00 0.00 0.00 94 1012.5
20260503053231 40 273 0.0 0.0 0.00 0.00 0.00 93 1012.6
20260503052727 40 271 0.0 0.0 0.00 0.00 0.00 94 1012.4
20260503052224 40 271 0.0 0.0 0.00 0.00 0.00 94 1012.5
20260503051719 40 271 0.0 0.0 0.00 0.00 0.00 93 1012.3
20260503051217 40 271 0.0 0.0 0.00 0.00 0.00 93 1012.3
20260503050713 40 271 0.0 0.0 0.00 0.00 0.00 93 1012.4
20260503050210 40 271 0.0 0.0 0.00 0.00 0.00 92 1012.2
20260503045707 40 271 0.0 0.0 0.00 0.00 0.00 92 1012.3
20260503045205 40 271 0.0 0.0 0.00 0.00 0.00 91 1012.1
20260503044701 40 271 0.0 0.0 0.00 0.00 0.00 91 1012.1
20260503044158 41 271 0.0 0.0 0.00 0.00 0.00 91 1012.2
20260503043655 41 271 0.0 0.0 0.00 0.00 0.00 90 1012.0
20260503043153 41 270 0.0 0.0 0.00 0.00 0.00 90 1012.1
20260503042648 41 260 0.0 0.0 0.00 0.00 0.00 90 1012.2
20260503042145 41 259 0.0 0.0 0.00 0.00 0.00 89 1012.0
20260503041641 42 259 0.0 0.0 0.00 0.00 0.00 89 1012.0
20260503041140 42 259 0.0 0.0 0.00 0.00 0.00 88 1011.9
20260503040636 42 259 0.0 0.0 0.00 0.00 0.00 87 1011.8
20260503040134 42 259 0.0 0.0 0.00 0.00 0.00 87 1011.8
20260503035630 43 259 0.0 0.0 0.00 0.00 0.00 87 1011.8
20260503035128 43 259 0.0 0.0 0.00 0.00 0.00 86 1011.8
20260503034625 43 259 0.0 0.0 0.00 0.00 0.00 86 1011.9
20260503034122 44 257 0.0 0.0 0.00 0.00 0.00 85 1011.7
20260503033619 44 257 0.0 0.0 0.00 0.00 0.00 84 1011.6
20260503033117 44 257 0.0 0.0 0.00 0.00 0.00 84 1011.8
20260503032615 45 257 0.0 0.0 0.00 0.00 0.00 82 1011.8
20260503032113 45 257 0.0 0.0 0.00 0.00 0.00 83 1011.6
20260503031610 45 257 0.0 0.0 0.00 0.00 0.00 82 1011.6
20260503031108 46 257 0.0 0.0 0.00 0.00 0.00 81 1011.7
20260503030604 46 257 0.0 0.0 0.00 0.00 0.00 80 1011.6
20260503030101 47 257 0.0 0.0 0.00 0.00 0.00 78 1011.6
20260503025557 48 257 0.0 0.0 0.00 0.00 0.00 77 1011.5
20260503025055 48 257 0.0 0.0 0.00 0.00 0.00 77 1011.5
20260503024551 49 257 0.0 0.0 0.00 0.00 0.00 78 1011.4
20260503024049 50 258 0.0 1.0 0.00 0.00 0.00 79 1011.4
20260503023545 50 260 0.0 0.0 0.00 0.00 0.00 80 1011.3
20260503023043 51 291 0.0 0.0 0.00 0.00 0.00 76 1011.2
20260503022538 51 292 0.0 0.0 0.00 0.00 0.00 64 1011.4
20260503022033 51 290 0.0 1.0 0.00 0.00 0.00 65 1011.2
20260503021530 50 289 0.0 1.0 0.00 0.00 0.00 71 1011.2
20260503021027 50 255 0.0 0.0 0.00 0.00 0.00 76 1010.9
20260503020524 50 356 0.0 0.0 0.00 0.00 0.00 73 1011.1
20260503020021 50 359 0.0 0.0 0.00 0.00 0.00 74 1011.0
20260503015518 50 9 1.0 1.0 0.00 0.00 0.00 83 1011.1
20260503015015 50 314 0.0 0.0 0.00 0.00 0.00 82 1010.9
20260503014511 50 315 0.0 1.0 0.00 0.00 0.00 82 1010.9
20260503014009 50 313 0.0 0.0 0.00 0.00 0.00 82 1010.7
20260503013506 51 316 0.0 1.0 0.00 0.00 0.00 82 1010.5
20260503013004 51 300 0.0 0.0 0.00 0.00 0.00 79 1010.6
20260503012501 51 296 0.0 1.0 0.00 0.00 0.00 78 1010.4
20260503011956 52 295 0.0 0.0 0.00 0.00 0.00 78 1010.3
20260503011454 52 296 0.0 0.0 0.00 0.00 0.00 78 1010.3